[[{"header":{"parameterUnit":"m.s-1","parameterCategory":1,"la1":30.2991,"la2":30.254,"lo1":-89.0895,"lo2":-89.0444,"dy":0.0017,"dx":0.0017,"nx":28,"ny":28,"refTime":"2025-07-24T09:00:00:Z","depth":0,"parameterNumber":2,"parameterNumberName":"U-component_of_WINDS"},"data":[0,0,0,0,0,0,0,0,0,0,0,0,0,0,0,0,0,0,0,0,0,0,0,0,0,0,0,0,0,0,0,0,0,0,0,0,0,0,0,0,0,0,0,0,0,0,0,0,0,0,0,0,0,0,0,0,0,0,-4.6061,-4.6062,0,-4.6126,-4.6126,-4.6127,-4.6079,-4.6077,-4.6075,-4.6073,-4.6136,-4.614,-4.6143,0,0,0,0,0,0,0,0,0,0,0,0,0,-4.5892,-4.5896,-4.6061,-4.6062,-4.6063,-4.6125,-4.6126,-4.6127,-4.608,-4.6077,-4.6075,-4.6072,-4.6135,-4.6139,-4.6144,0,0,0,0,0,0,0,0,0,0,0,0,0,-4.5962,-4.5897,-4.6061,-4.6047,-4.6046,-4.6125,-4.6126,-4.6127,-4.608,-4.6077,-4.6074,-4.6071,-4.6134,-4.6139,-4.6144,-4.624,0,0,-4.6161,-4.6163,0,0,0,0,0,0,0,0,-4.5958,-4.5968,-4.6048,-4.6048,-4.6047,-4.6091,-4.609,-4.6165,-4.6081,-4.6067,-4.6073,-4.607,-4.6124,-4.613,-4.6148,-4.6243,-4.6246,-4.6161,-4.6164,-4.6167,-4.6168,0,0,0,0,0,0,0,-4.5953,-4.5965,-4.6086,-4.6049,-4.6049,-4.6036,-4.6042,-4.6104,-4.6112,-4.6068,-4.6065,-4.6073,-4.6123,-4.6143,-4.615,-4.6247,-4.6161,-4.6166,-4.6169,-4.6171,-4.642,-4.6423,0,0,0,0,0,0,-4.595,-4.5962,-4.6084,-4.6088,-4.5994,-4.6041,-4.6048,-4.608,-4.6111,-4.6113,-4.6076,-4.6071,-4.6136,-4.6143,-4.6152,-4.6263,-4.6167,-4.6172,-4.6175,-4.6417,-4.6421,-4.6424,0,0,0,0,0,0,-4.5947,-4.5962,-4.6082,-4.6024,-4.6038,-4.6047,-4.6083,-4.6083,-4.6104,-4.6117,-4.6118,-4.6096,-4.6133,-4.6144,-4.6218,-4.6265,-4.6174,-4.6179,-4.6413,-4.6418,-4.6423,-4.6489,0,0,0,0,0,0,-4.5942,-4.5961,-4.5998,-4.6025,-4.6042,-4.6148,-4.6087,-4.6087,-4.6114,-4.6108,-4.6136,-4.6138,-4.6132,-4.621,-4.6223,-4.6271,-4.6183,-4.6408,-4.6415,-4.6421,-4.6483,-4.6496,-4.6507,0,0,0,0,0,-4.5937,-4.6015,-4.6001,-4.6016,-4.6089,-4.6151,-4.616,-4.6153,-4.6118,-4.6154,-4.6163,-4.6137,-4.6258,-4.6218,-4.6233,-4.6282,-4.6405,-4.6413,-4.642,-4.6478,-4.6494,-4.6507,0,0,0,0,0,0,-4.5992,-4.6018,-4.6003,-4.6092,-4.612,-4.6143,-4.6189,-4.6171,-4.6208,-4.6201,-4.619,-4.6196,-4.6273,-4.6286,-4.624,-4.6375,-4.6326,-4.6337,-4.6364,-4.638,-4.6392,-4.6386,-4.6188,0,0,0,0,0,-4.6015,-4.6065,-4.6084,-4.6161,-4.6176,-4.6181,-4.6207,-4.6199,-4.6227,-4.6239,-4.6252,-4.628,-4.6323,-4.6353,-4.6394,-4.6485,-4.6489,-4.6527,-4.6539,-4.6549,-4.6557,-4.6604,-4.662,-4.6449,-4.6449,-4.6449,0,0,-4.6062,-4.6082,-4.6114,-4.6173,-4.6193,-4.6243,-4.6191,-4.6246,-4.6282,-4.6247,-4.6317,-4.6328,-4.6357,-4.644,-4.6477,-4.6452,-4.6606,-4.6558,-4.6566,-4.6569,-4.6613,-4.6629,-4.6644,-4.6454,-4.6453,-4.6453,0,0,-4.6173,-4.6195,-4.626,-4.6282,-4.6314,-4.6316,-4.6332,-4.6358,-4.6364,-4.6435,-4.6409,-4.6451,-4.6528,-4.6549,-4.657,-4.6689,-4.6665,-4.6703,-4.6765,-4.6811,-4.6824,-4.6836,-4.6875,-4.689,-4.6712,-4.6712,-4.6712,0,-4.6227,-4.6303,-4.6295,-4.6353,-4.6378,-4.6349,-4.6414,-4.6435,-4.6479,-4.6496,-4.6469,-4.6563,-4.6581,-4.6667,-4.6696,-4.6715,-4.673,-4.6698,-4.6823,-4.6835,-4.6846,-4.6883,-4.6898,-4.6716,-4.6716,-4.6715,-4.6715,0,-4.6366,-4.6419,-4.6468,-4.6511,-4.6542,-4.6603,-4.6603,-4.6635,-4.6625,-4.663,-4.6701,-4.6721,-4.6765,-4.6786,-4.6776,-4.687,-4.6853,-4.6825,-4.6774,-4.6866,-4.6901,-4.6916,-4.6722,-4.6721,-4.6719,-4.6718,0,0,-4.6513,-4.6551,-4.6569,-4.6587,-4.6621,-4.666,-4.6719,-4.6763,-4.6789,-4.6821,-4.6868,-4.6934,-4.6907,-4.6931,-4.6923,-4.6964,-4.7053,-4.693,-4.693,-4.695,-4.7154,-4.7173,-4.719,-4.7038,-4.7041,-4.7043,-4.715,0,-4.6623,-4.6726,-4.6721,-4.6817,-4.6864,-4.6837,-4.6888,-4.6913,-4.6919,-4.6958,-4.6965,-4.701,-4.6974,-4.6987,-4.7026,-4.7034,-4.7093,-4.7026,-4.7079,-4.7081,-4.707,-4.7208,-4.7229,-4.7329,-4.7164,-4.7167,-4.7168,0,-4.6766,-4.6802,-4.6902,-4.6927,-4.6946,-4.6992,-4.7031,-4.707,-4.7097,-4.7099,-4.7125,-4.7111,-4.7168,-4.7118,-4.7196,-4.715,-4.7172,-4.7179,-4.7183,-4.7185,-4.7128,-4.7212,-4.7361,-4.7375,-4.719,-4.7188,-4.7187,0,-4.6859,-4.6933,-4.7002,-4.7019,-4.705,-4.7083,-4.7097,-4.7121,-4.7147,-4.7181,-4.7197,-4.7238,-4.7259,-4.7289,-4.7285,-4.725,-4.7363,-4.7313,-4.7363,-4.7363,-4.7386,-4.7384,-4.7538,-4.7405,-4.7405,-4.7405,-4.7405,0,-4.6981,-4.7043,-4.7044,-4.7086,-4.7154,-4.7147,-4.7214,-4.7225,-4.7246,-4.7289,-4.7269,-4.7308,-4.7302,-4.7342,-4.7339,-4.7402,-4.7412,-4.7413,-4.7411,-4.7414,-4.7413,-4.7425,-4.7417,-4.7409,-4.7408,-4.7407,-4.7406,0,-4.7096,-4.7099,-4.7172,-4.7196,-4.7203,-4.7252,-4.7271,-4.731,-4.7315,-4.7369,-4.7381,-4.7388,-4.7433,-4.7433,-4.7485,-4.7483,-4.7559,-4.755,-4.755,-4.7547,-4.7596,-4.759,-4.7761,-4.7782,-4.7638,-4.7639,-4.7641,0,-4.7172,-4.7219,-4.7248,-4.7275,-4.7291,-4.7336,-4.7362,-4.7357,-4.7385,-4.7419,-4.7454,-4.7497,-4.7532,-4.7605,-4.7614,-4.7653,-4.7643,-4.77,-4.7649,-4.7649,-4.764,-4.7636,-4.764,-4.7709,-4.7711,-4.7712,-4.7713,0,-4.7306,-4.7306,-4.7345,-4.7385,-4.7418,-4.7449,-4.7477,-4.7501,-4.7499,-4.7531,-4.7577,-4.7604,-4.7657,-4.77,-4.7737,-4.775,-4.7731,-4.773,-4.7743,-4.7744,-4.7741,-4.774,-4.7574,-4.7725,-4.7724,-4.7723,-4.7723,-4.7722,-4.7402,-4.7442,-4.7467,-4.7512,-4.7533,-4.756,-4.7597,-4.7606,-4.7645,-4.7688,-4.7683,-4.7734,-4.7758,-4.7806,-4.7823,-4.7861,-4.7841,-4.7861,-4.7865,-4.787,-4.7874,-4.7737,-4.7869,-4.7868,-4.7868,-4.7868,-4.7867,0,-4.7533,-4.7548,-4.7589,-4.763,-4.7664,-4.7645,-4.7675,-4.7704,-4.775,-4.7775,-4.7809,-4.7861,-4.7902,-4.7915,-4.7954,-4.7982,-4.7974,-4.7992,-4.7989,-4.7991,-4.7891,-4.7874,-4.7998,-4.7998,-4.7998,-4.7998,-4.7998,-4.7998,-4.7605,-4.7669,-4.7672,-4.7746,-4.7761,-4.7811,-4.783,-4.7854,-4.7873,-4.7933,-4.7967,-4.7975,-4.7994,-4.8034,-4.807,-4.8073,-4.8087,-4.8108,-4.8106,-4.8012,-4.7999,-4.7986,-4.797,-4.8112,-4.8112,-4.8203,-4.8204,-4.8205]},{"header":{"parameterUnit":"m.s-1","parameterCategory":1,"la1":30.2991,"la2":30.254,"lo1":-89.0895,"lo2":-89.0444,"dy":0.0017,"dx":0.0017,"nx":28,"ny":28,"refTime":"2025-07-24T09:00:00:Z","depth":0,"parameterNumber":3,"parameterNumberName":"V-component_of_WINDS"},"data":[0,0,0,0,0,0,0,0,0,0,0,0,0,0,0,0,0,0,0,0,0,0,0,0,0,0,0,0,0,0,0,0,0,0,0,0,0,0,0,0,0,0,0,0,0,0,0,0,0,0,0,0,0,0,0,0,0,0,2.8232,2.8233,0,2.831,2.8311,2.8312,2.8322,2.8322,2.8321,2.832,2.8398,2.8401,2.8403,0,0,0,0,0,0,0,0,0,0,0,0,0,2.8093,2.8095,2.8232,2.8233,2.8234,2.831,2.8311,2.8312,2.8323,2.8322,2.8321,2.832,2.8397,2.84,2.8404,0,0,0,0,0,0,0,0,0,0,0,0,0,2.816,2.8096,2.8232,2.8249,2.8251,2.831,2.8311,2.8312,2.8323,2.8322,2.8321,2.832,2.8396,2.84,2.8404,2.8451,0,0,2.8417,2.8418,0,0,0,0,0,0,0,0,2.8156,2.8165,2.8245,2.8248,2.825,2.8305,2.829,2.8359,2.8323,2.8295,2.832,2.8319,2.8368,2.8374,2.8391,2.8455,2.8458,2.8417,2.842,2.8421,2.8422,0,0,0,0,0,0,0,2.8152,2.8162,2.8263,2.8246,2.8249,2.8252,2.826,2.8303,2.8337,2.8298,2.8299,2.8308,2.8369,2.8387,2.8393,2.8459,2.8417,2.8421,2.8423,2.8425,2.8567,2.8568,0,0,0,0,0,0,2.8144,2.8158,2.826,2.8265,2.82,2.8255,2.8265,2.8289,2.8336,2.8343,2.8309,2.8308,2.8381,2.8388,2.8396,2.8455,2.8421,2.8425,2.8428,2.8566,2.8568,2.8569,0,0,0,0,0,0,2.8141,2.8153,2.8257,2.8212,2.8225,2.8259,2.8286,2.8291,2.8309,2.8345,2.8351,2.8321,2.838,2.839,2.8438,2.8458,2.8427,2.8431,2.8564,2.8566,2.8568,2.8573,0,0,0,0,0,0,2.8137,2.8152,2.817,2.8212,2.8228,2.8298,2.8287,2.8293,2.8316,2.8316,2.8358,2.8364,2.838,2.8432,2.8442,2.8463,2.8434,2.8563,2.8565,2.8568,2.8571,2.8574,2.8578,0,0,0,0,0,2.8132,2.8167,2.8171,2.8183,2.8251,2.8299,2.8308,2.8326,2.8318,2.8336,2.836,2.8362,2.8454,2.8436,2.8448,2.847,2.8561,2.8565,2.8567,2.8569,2.8574,2.8577,0,0,0,0,0,0,2.8125,2.8173,2.8177,2.8227,2.8259,2.8301,2.8324,2.833,2.8365,2.8363,2.8385,2.8394,2.8441,2.8461,2.844,2.852,2.8507,2.8513,2.8504,2.8509,2.8512,2.8506,2.8437,0,0,0,0,0,2.8129,2.8164,2.8205,2.8245,2.8261,2.829,2.8311,2.8324,2.8357,2.837,2.8397,2.8429,2.8465,2.8488,2.8524,2.8574,2.8584,2.8596,2.8599,2.8602,2.8606,2.8635,2.8641,2.8579,2.8579,2.8579,0,0,2.8138,2.8169,2.819,2.8244,2.827,2.8306,2.8301,2.8339,2.8366,2.8376,2.8422,2.8444,2.8481,2.8531,2.8554,2.8549,2.8626,2.8606,2.8607,2.861,2.8639,2.8645,2.865,2.8581,2.858,2.858,0,0,2.8173,2.82,2.8237,2.8264,2.8304,2.8324,2.8333,2.8374,2.8389,2.8437,2.8445,2.8478,2.854,2.8566,2.8588,2.8636,2.864,2.8647,2.8664,2.8693,2.8698,2.8702,2.872,2.8726,2.8651,2.8651,2.8651,0,2.8179,2.8234,2.8255,2.8294,2.8318,2.833,2.8368,2.8393,2.8442,2.8458,2.8452,2.8532,2.8557,2.8614,2.8626,2.8643,2.8655,2.8642,2.8696,2.87,2.8705,2.8722,2.8728,2.8652,2.8652,2.8652,2.8652,0,2.824,2.8278,2.8303,2.8351,2.8379,2.8416,2.8444,2.8469,2.8479,2.85,2.8549,2.8581,2.8624,2.8639,2.8649,2.8698,2.8693,2.8691,2.8679,2.8711,2.8727,2.8734,2.8653,2.8653,2.8652,2.8652,0,0,2.827,2.8332,2.834,2.8363,2.841,2.844,2.8479,2.8522,2.8543,2.8577,2.8611,2.8664,2.8663,2.8688,2.8702,2.8727,2.8764,2.8722,2.8723,2.8729,2.8821,2.8822,2.8829,2.8768,2.8769,2.877,2.8818,0,2.831,2.838,2.8402,2.8461,2.8497,2.851,2.8545,2.8577,2.8598,2.8632,2.8655,2.8692,2.8688,2.8703,2.8729,2.8754,2.8783,2.8751,2.8799,2.8801,2.8788,2.8837,2.8838,2.8881,2.8824,2.8825,2.8826,0,2.8365,2.8402,2.8465,2.8509,2.8524,2.8555,2.8597,2.8629,2.8667,2.868,2.8709,2.8721,2.8763,2.875,2.8809,2.8787,2.8808,2.8824,2.8826,2.883,2.8814,2.8843,2.8895,2.8902,2.8836,2.8836,2.8835,0,2.8381,2.8446,2.8493,2.8512,2.8564,2.8585,2.8608,2.8645,2.867,2.8707,2.8723,2.8764,2.8787,2.8819,2.8842,2.883,2.8899,2.8887,2.8911,2.8911,2.8924,2.8923,2.898,2.8939,2.8939,2.8939,2.8938,0,2.8423,2.8461,2.8501,2.8529,2.8572,2.8598,2.864,2.8663,2.8696,2.873,2.8745,2.8776,2.8805,2.884,2.8859,2.8905,2.8915,2.8927,2.8932,2.8926,2.8924,2.8939,2.8937,2.894,2.894,2.894,2.8939,0,2.8447,2.8475,2.8527,2.8573,2.8585,2.8615,2.8655,2.8683,2.8706,2.8748,2.876,2.8795,2.8838,2.8865,2.8919,2.8931,2.8982,2.8986,2.8969,2.8971,2.8994,2.8991,2.9063,2.9073,2.9025,2.9025,2.9026,0,2.8471,2.8501,2.8551,2.8575,2.8598,2.8636,2.8663,2.8689,2.8716,2.8763,2.8786,2.883,2.8866,2.8934,2.8964,2.9006,2.9011,2.9033,2.9017,2.901,2.9011,2.9009,2.9012,2.9035,2.9035,2.9036,2.9036,0,2.8512,2.8525,2.8562,2.8606,2.8637,2.8672,2.8707,2.8726,2.8759,2.8788,2.8832,2.8861,2.8917,2.8961,2.9006,2.9029,2.9038,2.9041,2.9049,2.9043,2.9032,2.9038,2.8976,2.9039,2.9039,2.9038,2.9038,2.9038,2.8537,2.8564,2.8605,2.8646,2.8676,2.8709,2.8738,2.8766,2.8803,2.8852,2.8865,2.8912,2.8951,2.9013,2.9038,2.9075,2.9072,2.9083,2.9086,2.9088,2.9088,2.9027,2.9083,2.9083,2.9083,2.9083,2.9083,0,2.8578,2.8605,2.8644,2.8693,2.8726,2.8733,2.8773,2.88,2.8841,2.8877,2.8914,2.8966,2.9009,2.9044,2.9088,2.9111,2.9117,2.9122,2.912,2.9126,2.9088,2.9077,2.9117,2.9117,2.9117,2.9117,2.9117,2.9117,2.8603,2.8651,2.8669,2.8732,2.8759,2.8805,2.8828,2.8859,2.8888,2.8945,2.8981,2.9005,2.9041,2.9088,2.9129,2.9138,2.9154,2.9158,2.9168,2.9132,2.9128,2.9125,2.9114,2.9161,2.9161,2.9203,2.9203,2.9203]}]]